Location: *
(44.3683°N, 6.6958°E)
Time: 15:29:42
(UTC+00:00)

YAOGAN 1 - Pass Details

Date: 14 October 2019
Orbit: 619 x 621 km, 98.0° (Epoch: 14 November)

Event Time Altitude Azimuth Distance (km) Brightness Sun altitude
Rises 17:14:23 0° 141° (SE) 2,887 5.7 -4.9°
Reaches altitude 10° 17:16:44 10° 131° (SE) 1,985 4.8 -5.3°
Maximum altitude 17:20:34 32° 69° (ENE) 1,067 3.3 -6.0°
Drops below altitude 10° 17:24:26 10° 6° (N) 1,998 5.1 -6.7°
Sets 17:26:47 0° 356° (N) 2,909 6.0 -7.1°
